Dumas, TX

5:40 PM CDT on May 26, 2018 (GMT -0500)
Moore County

Weather History for KDUX - August, 2013

Change the Weather History Date:

Monday, August 5, 2013

  Actual Average (WUND) Record (WUND)
Temperature  
Mean Temperature 82 °F -  
Max Temperature 97 °F - - (-1)
Min Temperature 68 °F - - (-1)
Cooling Degree Days 18    
Growing Degree Days 32 (Base 50)    
Moisture  
Dew Point 57 °F    
Average Humidity 43    
Maximum Humidity 68    
Minimum Humidity 25    
Precipitation  
Precipitation 0.00 in - - ()
Sea Level Pressure  
Sea Level Pressure 30.02 in    
Wind  
Wind Speed 12 mph (SSW)    
Max Wind Speed 24 mph    
Max Gust Speed 29 mph    
Visibility 10 miles    
Events      
Averages and records for this station are not official NWS values.
T = Trace of Precipitation, MM = Missing Value Source: NWS Daily Summary

Daily Weather History Graph

Daily Weather History Graph

Search for Another Location

Airport or City:

Astronomy

Aug. 05, 2013 Rise Set
Actual Time 6:59 AM CDT 8:48 PM CDT
Civil Twilight 6:31 AM CDT 9:16 PM CDT
Nautical Twilight 5:57 AM CDT 9:49 PM CDT
Astronomical Twilight 5:21 AM CDT 10:25 PM CDT
Moon 5:55 AM CDT (8/5) 7:51 PM CDT (8/5)
Length of Visible Light 14h 45m
Length of Day
13h 49m
Waning Crescent, 1% of the Moon is Illuminated
Aug 5
Waning Crescent
Aug 6
New
Aug 14
First Quarter
Aug 20
Full
Aug 28
Last Quarter

Hourly Weather History & Observations

Time (CDT) Temp. Heat Index Dew Point Humidity Pressure Visibility Wind Dir Wind Speed Gust Speed Precip Events Conditions
12:15 AM 76.8 °F - 56.3 °F 49% 30.08 in 10.0 mi SSW 10.4 mph - N/A   Clear
12:35 AM 76.3 °F - 56.3 °F 50% 30.08 in 10.0 mi SSW 9.2 mph - N/A   Clear
12:55 AM 75.7 °F - 56.3 °F 51% 30.07 in 10.0 mi SSW 10.4 mph - N/A   Clear
1:15 AM 76.1 °F - 56.3 °F 50% 30.07 in 10.0 mi SSW 9.2 mph - N/A   Clear
1:35 AM 75.2 °F - 56.7 °F 52% 30.07 in 10.0 mi SSW 9.2 mph - N/A   Clear
1:55 AM 73.8 °F - 56.8 °F 55% 30.07 in 10.0 mi SSW 9.2 mph - N/A   Clear
2:15 AM 73.6 °F - 56.7 °F 55% 30.07 in 10.0 mi SSW 9.2 mph - N/A   Clear
2:35 AM 75.0 °F - 56.5 °F 52% 30.07 in 10.0 mi SSW 9.2 mph - N/A   Clear
2:55 AM 74.3 °F - 56.5 °F 54% 30.07 in 10.0 mi SW 8.1 mph - N/A   Clear
3:15 AM 74.3 °F - 57.2 °F 55% 30.07 in 10.0 mi SW 9.2 mph - N/A   Clear
3:35 AM 71.6 °F - 57.7 °F 62% 30.08 in 10.0 mi West 5.8 mph - N/A   Clear
3:55 AM 70.2 °F - 58.3 °F 66% 30.08 in 10.0 mi SW 6.9 mph - N/A   Clear
4:15 AM 71.8 °F - 58.3 °F 62% 30.08 in 10.0 mi SSW 6.9 mph - N/A   Clear
4:35 AM 70.3 °F - 58.1 °F 65% 30.07 in 10.0 mi SSW 8.1 mph - N/A   Clear
4:55 AM 70.5 °F - 57.6 °F 63% 30.07 in 10.0 mi SSW 8.1 mph - N/A   Clear
5:15 AM 68.7 °F - 57.7 °F 68% 30.07 in 10.0 mi SSW 8.1 mph - N/A   Clear
5:35 AM 70.5 °F - 57.2 °F 63% 30.07 in 10.0 mi SSW 10.4 mph - N/A   Clear
5:55 AM 69.8 °F - 57.2 °F 64% 30.07 in 10.0 mi South 9.2 mph - N/A   Clear
6:15 AM 70.9 °F - 56.8 °F 61% 30.07 in 10.0 mi SSW 10.4 mph - N/A   Clear
6:35 AM 72.3 °F - 56.7 °F 58% 30.07 in 10.0 mi South 6.9 mph - N/A   Clear
6:55 AM 68.9 °F - 57.4 °F 67% 30.07 in 10.0 mi South 9.2 mph - N/A   Clear
7:15 AM 70.3 °F - 57.4 °F 63% 30.07 in 10.0 mi South 9.2 mph - N/A   Clear
7:35 AM 71.1 °F - 57.2 °F 61% 30.07 in 10.0 mi SSW 10.4 mph - N/A   Clear
7:55 AM 72.7 °F - 57.2 °F 58% 30.07 in 10.0 mi South 12.7 mph - N/A   Clear
8:15 AM 74.5 °F - 57.2 °F 55% 30.07 in 10.0 mi SSW 12.7 mph - N/A   Clear
8:35 AM 76.3 °F - 57.4 °F 52% 30.07 in 10.0 mi SSW 15.0 mph - N/A   Clear
8:55 AM 78.3 °F - 57.6 °F 49% 30.07 in 10.0 mi SSW 15.0 mph - N/A   Clear
9:15 AM 81.0 °F 81.0 °F 57.2 °F 44% 30.07 in 10.0 mi SSW 16.1 mph 20.7 mph N/A   Clear
9:35 AM 82.2 °F 81.9 °F 57.0 °F 42% 30.07 in 10.0 mi SW 20.7 mph 28.8 mph N/A   Clear
9:55 AM 83.3 °F 82.8 °F 57.4 °F 41% 30.07 in 10.0 mi SW 23.0 mph 26.5 mph N/A   Clear
10:15 AM 84.4 °F 83.8 °F 58.1 °F 41% 30.07 in 10.0 mi SW 20.7 mph - N/A   Clear
10:35 AM 85.3 °F 84.6 °F 58.5 °F 40% 30.07 in 10.0 mi SW 24.2 mph 27.6 mph N/A   Clear
10:55 AM 86.4 °F 85.6 °F 59.0 °F 39% 30.06 in 10.0 mi SW 19.6 mph 28.8 mph N/A   Clear
11:15 AM 87.6 °F 86.9 °F 58.8 °F 38% 30.06 in 10.0 mi SW 19.6 mph - N/A   Clear
11:35 AM 89.2 °F 88.2 °F 58.5 °F 35% 30.06 in 10.0 mi SSW 19.6 mph 27.6 mph N/A   Clear
11:55 AM 90.1 °F 89.1 °F 58.6 °F 34% 30.06 in 10.0 mi SSW 19.6 mph 27.6 mph N/A   Clear
12:15 PM 90.7 °F 89.5 °F 57.7 °F 33% 30.06 in 10.0 mi SSW 16.1 mph 24.2 mph N/A   Clear
12:35 PM 91.0 °F 89.7 °F 57.2 °F 32% 30.05 in 10.0 mi SW 17.3 mph 25.3 mph N/A   Clear
12:55 PM 92.1 °F 90.8 °F 57.4 °F 31% 30.05 in 10.0 mi SW 16.1 mph 21.9 mph N/A   Clear
1:15 PM 92.8 °F 91.4 °F 56.8 °F 30% 30.04 in 10.0 mi WSW 17.3 mph 24.2 mph N/A   Clear
1:35 PM 93.2 °F 91.6 °F 56.7 °F 29% 30.03 in 10.0 mi SW 16.1 mph - N/A   Clear
1:55 PM 94.1 °F 92.8 °F 57.4 °F 29% 30.02 in 10.0 mi SW 16.1 mph 19.6 mph N/A   Clear
2:15 PM 95.2 °F 93.9 °F 57.7 °F 28% 30.02 in 10.0 mi WSW 17.3 mph 20.7 mph N/A   Clear
2:35 PM 95.9 °F 94.6 °F 56.7 °F 27% 30.01 in 10.0 mi SW 15.0 mph 24.2 mph N/A   Clear
2:55 PM 95.5 °F 93.7 °F 55.8 °F 26% 30.01 in 10.0 mi SW 8.1 mph 12.7 mph N/A   Clear
3:15 PM 96.1 °F 94.1 °F 55.4 °F 25% 30.00 in 10.0 mi SW 8.1 mph 23.0 mph N/A   Clear
3:35 PM 96.6 °F 94.8 °F 55.4 °F 25% 30.00 in 10.0 mi SW 17.3 mph 21.9 mph N/A   Clear
3:55 PM 97.5 °F 96.1 °F 56.1 °F 25% 29.98 in 10.0 mi SW 17.3 mph 20.7 mph N/A   Clear
4:15 PM 97.2 °F 96.4 °F 57.6 °F 27% 29.97 in 10.0 mi SSW 16.1 mph 28.8 mph N/A   Clear
4:35 PM 96.6 °F 95.2 °F 56.1 °F 26% 29.96 in 10.0 mi SSW 10.4 mph 19.6 mph N/A   Clear
4:55 PM 96.4 °F 95.3 °F 57.6 °F 27% 29.96 in 10.0 mi SSW 16.1 mph 20.7 mph N/A   Clear
5:15 PM 95.5 °F 94.4 °F 57.7 °F 28% 29.95 in 10.0 mi SSW 18.4 mph 23.0 mph N/A   Clear
5:35 PM 95.4 °F 94.2 °F 57.0 °F 28% 29.95 in 10.0 mi SSW 13.8 mph 18.4 mph N/A   Clear
5:55 PM 93.9 °F 92.6 °F 56.8 °F 29% 29.94 in 10.0 mi South 12.7 mph 18.4 mph N/A   Clear
6:15 PM 95.4 °F 93.8 °F 56.8 °F 27% 29.94 in 10.0 mi SSW 18.4 mph 23.0 mph N/A   Clear
6:35 PM 95.0 °F 93.4 °F 56.3 °F 27% 29.93 in 10.0 mi SSW 15.0 mph - N/A   Clear
6:55 PM 94.5 °F 92.6 °F 55.9 °F 27% 29.93 in 10.0 mi South 11.5 mph 18.4 mph N/A   Clear
7:15 PM 93.9 °F 92.2 °F 55.8 °F 28% 29.92 in 10.0 mi South 12.7 mph 17.3 mph N/A   Clear
7:35 PM 92.8 °F 91.1 °F 56.7 °F 29% 29.92 in 10.0 mi South 11.5 mph - N/A   Clear
7:55 PM 91.9 °F 90.3 °F 56.5 °F 30% 29.93 in 10.0 mi South 16.1 mph - N/A   Clear
8:15 PM 90.1 °F 88.6 °F 56.3 °F 32% 29.93 in 10.0 mi South 12.7 mph - N/A   Clear
8:35 PM 88.2 °F 86.7 °F 56.3 °F 34% 29.93 in 10.0 mi South 12.7 mph - N/A   Clear
8:55 PM 86.4 °F 85.1 °F 56.1 °F 36% 29.93 in 10.0 mi South 12.7 mph - N/A   Clear
9:15 PM 85.5 °F 84.1 °F 55.6 °F 36% 29.93 in 10.0 mi South 11.5 mph - N/A   Clear
9:35 PM 83.5 °F 82.5 °F 55.4 °F 38% 29.93 in 10.0 mi South 10.4 mph - N/A   Clear
9:55 PM 81.9 °F 81.3 °F 55.0 °F 40% 29.94 in 10.0 mi South 10.4 mph - N/A   Clear
10:15 PM 80.1 °F 80.1 °F 54.9 °F 42% 29.95 in 10.0 mi South 8.1 mph - N/A   Clear
10:35 PM 79.0 °F - 54.5 °F 43% 29.96 in 10.0 mi South 8.1 mph - N/A   Clear
10:55 PM 75.7 °F - 55.0 °F 49% 29.96 in 10.0 mi South 8.1 mph - N/A   Clear
11:15 PM 75.2 °F - 55.8 °F 51% 29.97 in 10.0 mi South 8.1 mph - N/A   Clear
11:35 PM 73.6 °F - 55.0 °F 52% 29.96 in 10.0 mi South 9.2 mph - N/A   Clear
11:55 PM 73.6 °F - 55.4 °F 53% 29.96 in 10.0 mi South 8.1 mph - N/A   Clear